Regional Weather Roundup
Issued by NWS Wilmington, NC

Home | Current Version | Previous Version | Text Only | Print | Product List | Glossary On
Versions: 1 2 3 4 5 6 7 8 9 10 11 12 13 14 15 16 17 18 19 20 21 22 23 24 25 26 27 28 29 30 31 32 33 34 35 36 37 38 39 40 41 42 43 44 45 46 47 48 49 50
000
ASUS42 KILM 281613
RWRILM
RWRILM
REGIONAL HOURLY WEATHER ROUNDUP
NATIONAL WEATHER SERVICE WILMINGTON NC
1200 PM EDT SAT MAR 28 2015

NOTE: "FAIR" INDICATES FEW OR NO CLOUDS BELOW 12,000 FEET WITH NO
SIGNIFICANT WEATHER AND/OR OBSTRUCTIONS TO VISIBILITY.

...............WFO WILMINGTON COUNTY WARNING AREA...............

......COASTAL NC AND SC COUNTIES......

CITY           SKY/WX    TMP DP  RH WIND       PRES   REMARKS
WILMINGTON     PTSUNNY   48  35  60 NW13      30.04R
SOUTHPORT      CLOUDY    47  33  57 NW9       30.05R
N MYRTLE BEACH PTSUNNY   48  31  51 W9        30.06R
MYRTLE BEACH   PTSUNNY   50  34  53 N14       30.08R

......INLAND NC AND SC COUNTIES.......

CITY           SKY/WX    TMP DP  RH WIND       PRES   REMARKS
LUMBERTON      CLOUDY    47  29  49 N15       30.05S
ELIZABETHTOWN  PTSUNNY   47  28  48 NW8       30.05S
WHITEVILLE     MOSUNNY   47  28  48 W5        30.05S
FLORENCE       PTSUNNY   49  28  44 NW7G17    30.07R
DARLINGTON     PTSUNNY   46  27  46 NW7G16    30.08S

....................REST OF NORTH CAROLINA......................

.........EASTERN NC.........

CITY           SKY/WX    TMP DP  RH WIND       PRES   REMARKS
CAPE HATTERAS  PTSUNNY   46  31  55 NW9       29.99R
JACKSONVILLE   CLOUDY    46  34  61 W5        30.03R
MOREHEAD CITY  PTSUNNY   47  35  63 NW12      30.01R
KENANSVILLE    CLOUDY    45  30  56 NW7       30.05R
NEW BERN       PTSUNNY   46  33  60 NW10G18   30.02S
ELIZABETH CITY CLOUDY    43  30  60 NW10      29.99R

.........CENTRAL NC.........

CITY           SKY/WX    TMP DP  RH WIND       PRES   REMARKS
RALEIGH DURHAM MOSUNNY   40  17  39 NW12G21   30.06R WCI  33
ROCKY MOUNT    MOSUNNY   42  25  50 NW10      30.04R
ROANOKE RAPIDS NOT AVBL
FAYETTEVILLE   MOSUNNY   45  25  45 NW13G21   30.05R
HOFFMAN        PTSUNNY   44  25  46 NW13G23   30.09S

.........WESTERN NC.........

CITY           SKY/WX    TMP DP  RH WIND       PRES   REMARKS
CHARLOTTE      MOSUNNY   43  14  31 NW16G22   30.08S
GREENSBORO     MOSUNNY   37  12  35 NW10G24   30.06R WCI  30
HICKORY        NOT AVBL
BOONE          NOT AVBL
ASHEVILLE      NOT AVBL

.....................REST OF SOUTH CAROLINA.....................

.........EASTERN SC.........

CITY           SKY/WX    TMP DP  RH WIND       PRES   REMARKS
CHARLESTON     MOSUNNY   51  30  44 W13       30.08S
BEAUFORT MCAS  MOSUNNY   52  29  41 W14       30.10S
HILTON HEAD    MOSUNNY   54  32  43 W8G18     30.11S

.........CENTRAL SC.........

CITY           SKY/WX    TMP DP  RH WIND       PRES   REMARKS
COLUMBIA       MOSUNNY   48  24  39 W8G20     30.09R
ORANGEBURG     PTSUNNY   51  27  39 W8G16     30.09R
SUMTER SHAW    MOSUNNY   49  28  43 NW12      30.06R

.........WESTERN SC.........

CITY           SKY/WX    TMP DP  RH WIND       PRES   REMARKS
GREENVILLE     NOT AVBL
ROCK HILL      SUNNY     45  20  36 N13       30.08S
ANDERSON       SUNNY     45  18  34 NW8G17    30.10S
CLEMSON        NOT AVBL
GREENWOOD      LGT RAIN  46  22  38 NW3       30.11S


...................COASTAL AND OFFSHORE REPORTS..................

................LOCAL PIERS AND NC RESERVE................


STATION/POSITION TIME  SKY/WX   TEMP    WIND        PRES    VSBY
                                AIR SEA DIR/SP/G
                 (UTC)          (F)     (DEG/KT/KT) (MB)    (MI)
JOHNY MRCER PIER 1500            46 58  310/ 10/ 14 1016.0R
NC RESRV MASNBRO 1445            48     340/  2     1016.0
OCEAN CREST PIER 1502            47 54  340/ 11/ 15 1015.9R
SPRINGMAID  PIER 1500            47 56  330/  8/ 10 1017.7R


................COASTAL AND OFFSHORE BUOYS................


STATION/POSITION TIME  SKY/WX   TEMP    WIND        PRES    VSBY
                                AIR SEA DIR/SP/G
                 (UTC)          (F)     (DEG/KT/KT) (MB)    (MI)
DIMNDSHOAL 41025 NOT AVBL
CAPE LOOKOUT     1600            46     300/  7/  9 1016.0R
ONSLOW BAY 41036 NOT AVBL
5 WRITEBCH 41038 1500            46 56  350/ 12/ 14 1016.7R
MASONBORO  41110 1519               56                N/A
WVE H/P(F/S)=  3/ 8 WND WVE H/P(F/S)=  3/ 8

WILM HARBR 41108 1511               59                N/A
WVE H/P(F/S)=  3/ 8 WND WVE H/P(F/S)=  3/ 8

27WRITEBCH 41037 1500            44 64  360/ 14/ 16 1017.7R
FRYING PAN 41013 1550            48 64  340/ 14/ 17 1017.3R
WVE H/P(F/S)=  5/ 8 WND WVE H/P(F/S)=  3/ 5 SWL H/P/D(F/S/D)=  3/160/ 8

SUNST NRSH 41024 1500            48     330/ 12/ 14   N/A
CAPRS NRSH 41029 NOT AVBL
EDISTO     41004 1550            51 68  310/ 12/ 17 1017.8R
WVE H/P(F/S)=  5/ 7 WND WVE H/P(F/S)=  3/ 6 SWL H/P/D(F/S/D)=  3/ 7



..........OFFSHORE BUOYS BEYOND 100 NM OFFSHORE...........
.....IN A TRIANGLE---HAT TO BERMUDA TO BAHAMAS TO HAT.....


STATION/POSITION TIME  SKY/WX   TEMP    WIND        PRES    VSBY
                                AIR SEA DIR/SP/G
                 (UTC)          (F)     (DEG/KT/KT) (MB)    (MI)
150E HAT   41001 NOT AVBL
W BERMUDA  41048 1550            68 69  240/ 16/ 19 1011.0R
WVE H/P(F/S)= 11/ 8 WND WVE H/P(F/S)=  8/ 5 SWL H/P/D(F/S/D)=  7/200/ 8

ATLANTIC S 41049 1550            75 74  170/ 21/ 25 1021.7F
WVE H/P(F/S)=  8/ 7 WND WVE H/P(F/S)=  8/ 7 SWL H/P/D(F/S/D)=  2/ 90/11

E BAHAMAS  41046 1550            79 79  190/ 19/ 23 1020.0S
WVE H/P(F/S)=  7/ 8 WND WVE H/P(F/S)=  7/ 8

NE BAHAMAS 41047 1550            73 75  210/ 16/ 17 1016.2F
WVE H/P(F/S)=  6/ 7 WND WVE H/P(F/S)=  5/ 7 SWL H/P/D(F/S/D)=  3/120/ 8

120E CANVRL41010 1520            64 75  300/ 17/ 23 1018.7R

END


USA.gov is the U.S. government's official web portal to all federal, state and local government web resources and services.